Location: The Saddle
(36.8333°N, 80.3417°W)
Time: 11:21:23
(UTC-05:00)

Courier 1B - Visible Passes

Search period start: 02 December 2023 00:00
Search period end: 12 December 2023 00:00
Orbit: 962 x 1208 km, 28.3° (Epoch: 30 November)

Date Brightness Start Highest point End Pass type
(mag) Time Alt. Az. Time Alt. Az. Time Alt. Az.
06 Dec 10.5 06:45:41 10° S 06:47:51 11° SSE 06:49:59 10° SE visible
08 Dec 10.1 06:48:52 10° SSW 06:53:48 20° SSE 06:58:32 10° ESE visible
09 Dec 10.1 05:56:02 10° S 06:00:07 16° SSE 06:04:05 10° ESE visible
10 Dec 10.3 05:03:55 10° S 05:06:25 12° SSE 05:08:54 10° SE visible
11 Dec 9.7 06:00:18 10° SSW 06:06:04 24° SSE 06:11:35 10° ESE visible
